Flag for Norway Weather past 2 weeks in Førde, Norway

Now
41 °F

Scattered clouds.


Feels Like: 38 °F
Forecast: 30 / 50 °F
Wind: 5 mph from North

Location: Forde / Bringeland

Current Time: Apr 27, 2015 at 10:12:55 AM

Latest Report: Apr 27, 2015 at 9:50 AM


Visibility: N/A

Pressure: 29.56 "Hg

Humidity: 53%

Dew point: 25 °F

Location of FørdeLocation

Historic Weather in Førde — Graph

°F

Førde temperature yesterday

Maximum temperature yesterday: 39 °F (at 3:50 PM)
Minimum temperature yesterday: 34 °F (at 11:50 AM)
Average temperature yesterday: 36 °F

Past Weeks' High & Low Weather Summary

 TemperatureHumidityPressure
High90 °F (Apr 16, 1:50 PM)100% (Apr 12, 8:50 PM)30.42 "Hg (Apr 12, 8:50 PM)
Low30 °F (Apr 13, 6:50 AM)11% (Apr 16, 1:50 PM)29.18 "Hg (Apr 25, 3:20 PM)
Average39 °F77%29.93 "Hg
* Reported Apr 12 11:50 AM — Apr 27 8:50 AM, Førde, Weather by CustomWeather, © 2015

Note: Actual official high and low records may vary slightly from our data, if they occured in-between our weather recording intervals... More about our weather records

Advertising

Førde weather history for previous 24 hours

 ConditionsComfort  
Time TempWeatherWind HumidityBarometerVisibility
8:50 AM
Mon, Apr 27
36 °FScattered clouds.7 mph70%29.56 "HgN/A
8:20 AM36 °FPartly sunny.9 mph70%29.56 "HgN/A
7:50 AM34 °FPartly sunny.8 mph75%29.56 "HgN/A
6:50 AM34 °FScattered showers. Partly sunny.7 mph81%29.56 "HgN/A
5:50 AM32 °FPartly cloudy.7 mph87%29.56 "HgN/A
10:20 PM
Sun, Apr 26
34 °FScattered showers. Broken clouds.3 mph93%29.56 "HgN/A
8:20 PM34 °FScattered showers. Broken clouds.6 mph93%29.56 "HgN/A
7:50 PM36 °FScattered showers. Broken clouds.7 mph87%29.53 "HgN/A
7:20 PM36 °FBroken clouds.3 mph87%29.56 "HgN/A
6:50 PM34 °FSleet. Broken clouds.12 mph93%29.56 "HgN/A
6:20 PM34 °FScattered showers. Broken clouds.8 mph93%29.53 "HgN/A
5:50 PM37 °FScattered showers. Broken clouds.10 mph75%29.53 "HgN/A
5:20 PM39 °FScattered showers. Broken clouds.10 mph70%29.53 "HgN/A
4:50 PM37 °FScattered showers. Broken clouds.12 mph81%29.53 "HgN/A
4:20 PM37 °FScattered showers. Broken clouds.12 mph81%29.50 "HgN/A
3:50 PM39 °FSnow flurries. Broken clouds.7 mph81%29.50 "HgN/A
3:20 PM36 °FSnow flurries. Broken clouds.7 mph87%29.50 "HgN/A
2:20 PM37 °FScattered showers. Broken clouds.6 mph87%29.50 "HgN/A
1:50 PM36 °FSnow flurries. Cloudy.6 mph93%29.47 "HgN/A
1:20 PM36 °FScattered showers. Cloudy.3 mph87%29.47 "HgN/A
12:50 PM34 °FSnow showers. Cloudy.6 mph93%29.47 "Hg4 mi
12:20 PM34 °FSleet. Cloudy.8 mph93%29.45 "Hg4 mi
11:50 AM34 °FScattered showers. Cloudy.9 mph93%29.45 "HgN/A
Weather by CustomWeather, © 2015

See weather overviewHow to use our weather pages